Time,TemperatureF,DewpointF,PressureIn,WindDirection,WindDirectionDegrees,WindSpeedMPH,WindSpeedGustMPH,Humidity,HourlyPrecipIn,Conditions,Clouds,dailyrainin,SoftwareType,DateUTC
2013-06-04 00:05:00,55.7,46.8,29.80,SW,226,0.0,0.0,72,0.00,,,0.00,Wunderground v.1.15,2013-06-04 04:05:00,
2013-06-04 00:10:00,55.4,46.5,29.79,SW,226,0.0,0.0,72,0.00,,,0.00,Wunderground v.1.15,2013-06-04 04:10:00,
2013-06-04 00:15:00,55.1,47.0,29.79,SW,226,0.0,0.0,74,0.00,,,0.00,Wunderground v.1.15,2013-06-04 04:15:00,
2013-06-04 00:20:00,54.9,46.0,29.79,SW,229,0.0,0.0,72,0.00,,,0.00,Wunderground v.1.15,2013-06-04 04:20:00,
2013-06-04 00:25:00,54.7,45.8,29.80,SW,230,0.0,0.0,72,0.00,,,0.00,Wunderground v.1.15,2013-06-04 04:25:00,
2013-06-04 00:35:00,54.6,45.4,29.80,SW,234,0.0,0.0,71,0.00,,,0.00,Wunderground v.1.15,2013-06-04 04:35:00,
2013-06-04 00:40:00,54.7,45.1,29.80,SW,230,0.0,0.0,70,0.00,,,0.00,Wunderground v.1.15,2013-06-04 04:40:00,
2013-06-04 00:50:00,54.8,44.8,29.80,SW,221,0.0,1.0,69,0.00,,,0.00,Wunderground v.1.15,2013-06-04 04:50:00,
2013-06-04 00:55:00,54.8,44.8,29.80,SW,219,0.0,1.0,69,0.00,,,0.00,Wunderground v.1.15,2013-06-04 04:55:00,
2013-06-04 01:00:00,54.7,44.3,29.81,SW,223,0.0,0.0,68,0.00,,,0.00,Wunderground v.1.15,2013-06-04 05:00:00,
2013-06-04 01:05:00,54.5,44.5,29.81,SW,227,0.0,1.0,69,0.00,,,0.00,Wunderground v.1.15,2013-06-04 05:05:00,
2013-06-04 01:15:00,54.1,43.8,29.81,SW,228,0.0,0.0,68,0.00,,,0.00,Wunderground v.1.15,2013-06-04 05:15:00,
2013-06-04 01:25:00,53.7,44.1,29.81,SW,227,0.0,0.0,70,0.00,,,0.00,Wunderground v.1.15,2013-06-04 05:25:00,
2013-06-04 01:35:00,53.3,44.5,29.81,SW,230,0.0,0.0,72,0.00,,,0.00,Wunderground v.1.15,2013-06-04 05:35:00,
2013-06-04 01:45:00,52.6,43.1,29.81,SW,230,0.0,0.0,70,0.00,,,0.00,Wunderground v.1.15,2013-06-04 05:45:00,
2013-06-04 01:50:00,52.3,43.5,29.81,SW,230,0.0,0.0,72,0.00,,,0.00,Wunderground v.1.15,2013-06-04 05:50:00,
2013-06-04 01:55:00,52.1,43.3,29.81,SW,230,0.0,0.0,72,0.00,,,0.00,Wunderground v.1.15,2013-06-04 05:55:00,
2013-06-04 02:05:00,51.8,42.7,29.82,SW,230,0.0,0.0,71,0.00,,,0.00,Wunderground v.1.15,2013-06-04 06:05:00,
2013-06-04 02:10:00,51.6,42.9,29.82,SW,230,0.0,0.0,72,0.00,,,0.00,Wunderground v.1.15,2013-06-04 06:10:00,
2013-06-04 02:15:00,51.5,42.4,29.82,SW,230,0.0,0.0,71,0.00,,,0.00,Wunderground v.1.15,2013-06-04 06:15:00,
2013-06-04 02:25:00,51.3,41.8,29.81,SW,230,0.0,0.0,70,0.00,,,0.00,Wunderground v.1.15,2013-06-04 06:25:00,
2013-06-04 02:35:00,51.3,41.8,29.82,SW,232,0.0,0.0,70,0.00,,,0.00,Wunderground v.1.15,2013-06-04 06:35:00,
2013-06-04 02:40:00,51.0,41.6,29.82,SW,232,0.0,0.0,70,0.00,,,0.00,Wunderground v.1.15,2013-06-04 06:40:00,
2013-06-04 02:45:00,50.9,41.1,29.82,SW,233,0.0,0.0,69,0.00,,,0.00,Wunderground v.1.15,2013-06-04 06:45:00,
2013-06-04 02:55:00,50.8,41.0,29.82,WSW,239,0.0,0.0,69,0.00,,,0.00,Wunderground v.1.15,2013-06-04 06:55:00,
2013-06-04 03:00:00,50.8,40.6,29.82,WSW,238,0.0,0.0,68,0.00,,,0.00,Wunderground v.1.15,2013-06-04 07:00:00,
2013-06-04 03:05:00,50.8,40.6,29.82,WSW,239,0.0,0.0,68,0.00,,,0.00,Wunderground v.1.15,2013-06-04 07:05:00,
2013-06-04 03:15:00,50.3,40.9,29.82,WSW,239,0.0,0.0,70,0.00,,,0.00,Wunderground v.1.15,2013-06-04 07:15:00,
2013-06-04 03:25:00,49.7,40.3,29.81,WSW,239,0.0,0.0,70,0.00,,,0.00,Wunderground v.1.15,2013-06-04 07:25:00,
2013-06-04 03:30:00,49.4,40.4,29.81,WSW,239,0.0,0.0,71,0.00,,,0.00,Wunderground v.1.15,2013-06-04 07:30:00,
2013-06-04 03:35:00,49.2,40.2,29.81,WSW,238,0.0,0.0,71,0.00,,,0.00,Wunderground v.1.15,2013-06-04 07:35:00,
2013-06-04 03:45:00,48.9,40.3,29.81,WSW,238,0.0,0.0,72,0.00,,,0.00,Wunderground v.1.15,2013-06-04 07:45:00,
2013-06-04 03:50:00,48.8,40.2,29.82,WSW,238,0.0,0.0,72,0.00,,,0.00,Wunderground v.1.15,2013-06-04 07:50:00,
2013-06-04 04:00:00,48.6,40.0,29.82,WSW,238,0.0,0.0,72,0.00,,,0.00,Wunderground v.1.15,2013-06-04 08:00:00,
2013-06-04 04:05:00,48.6,40.3,29.82,WSW,238,0.0,0.0,73,0.00,,,0.00,Wunderground v.1.15,2013-06-04 08:05:00,
2013-06-04 04:10:00,48.5,40.2,29.82,WSW,238,0.0,0.0,73,0.00,,,0.00,Wunderground v.1.15,2013-06-04 08:10:00,
2013-06-04 04:15:00,48.3,40.0,29.82,WSW,238,0.0,0.0,73,0.00,,,0.00,Wunderground v.1.15,2013-06-04 08:15:00,
2013-06-04 04:25:00,47.9,40.4,29.82,WSW,238,0.0,0.0,75,0.00,,,0.00,Wunderground v.1.15,2013-06-04 08:25:00,
2013-06-04 04:35:00,47.5,40.0,29.82,WSW,238,0.0,0.0,75,0.00,,,0.00,Wunderground v.1.15,2013-06-04 08:35:00,
2013-06-04 04:40:00,47.4,40.2,29.82,WSW,238,0.0,0.0,76,0.00,,,0.00,Wunderground v.1.15,2013-06-04 08:40:00,
2013-06-04 04:45:00,47.2,40.0,29.83,WSW,238,0.0,0.0,76,0.00,,,0.00,Wunderground v.1.15,2013-06-04 08:45:00,
2013-06-04 04:55:00,47.3,39.8,29.83,WSW,239,0.0,0.0,75,0.00,,,0.00,Wunderground v.1.15,2013-06-04 08:55:00,
2013-06-04 05:00:00,47.4,39.9,29.83,SW,235,0.0,0.0,75,0.00,,,0.00,Wunderground v.1.15,2013-06-04 09:00:00,
2013-06-04 05:05:00,47.2,40.0,29.83,SW,234,0.0,0.0,76,0.00,,,0.00,Wunderground v.1.15,2013-06-04 09:05:00,
2013-06-04 05:15:00,46.7,39.9,29.83,SW,236,0.0,0.0,77,0.00,,,0.00,Wunderground v.1.15,2013-06-04 09:15:00,
2013-06-04 05:25:00,46.8,40.0,29.84,SW,234,0.0,0.0,77,0.00,,,0.00,Wunderground v.1.15,2013-06-04 09:25:00,
2013-06-04 05:30:00,47.0,40.2,29.84,SW,234,0.0,0.0,77,0.00,,,0.00,Wunderground v.1.15,2013-06-04 09:30:00,
2013-06-04 05:35:00,47.3,40.1,29.85,SW,234,0.0,0.0,76,0.00,,,0.00,Wunderground v.1.15,2013-06-04 09:35:00,
2013-06-04 05:45:00,47.8,40.3,29.85,SW,236,0.0,0.0,75,0.00,,,0.00,Wunderground v.1.15,2013-06-04 09:45:00,
2013-06-04 05:50:00,47.9,40.4,29.85,SW,236,0.0,0.0,75,0.00,,,0.00,Wunderground v.1.15,2013-06-04 09:50:00,
2013-06-04 05:55:00,47.9,40.7,29.85,SW,236,0.0,0.0,76,0.00,,,0.00,Wunderground v.1.15,2013-06-04 09:55:00,
2013-06-04 06:05:00,48.2,41.0,29.86,SW,236,0.0,0.0,76,0.00,,,0.00,Wunderground v.1.15,2013-06-04 10:05:00,
2013-06-04 06:11:00,48.6,40.7,29.86,SW,228,0.0,0.0,74,0.00,,,0.00,Wunderground v.1.15,2013-06-04 10:11:00,
2013-06-04 06:20:00,49.1,41.2,29.86,SW,229,0.0,0.0,74,0.00,,,0.00,Wunderground v.1.15,2013-06-04 10:20:00,
2013-06-04 06:25:00,49.2,41.6,29.86,SW,229,0.0,0.0,75,0.00,,,0.00,Wunderground v.1.15,2013-06-04 10:25:00,
2013-06-04 06:35:00,49.6,41.7,29.87,SW,229,0.0,0.0,74,0.00,,,0.00,Wunderground v.1.15,2013-06-04 10:35:00,
2013-06-04 06:40:00,50.0,42.0,29.86,SW,229,0.0,0.0,74,0.00,,,0.00,Wunderground v.1.15,2013-06-04 10:40:00,
2013-06-04 06:45:00,50.5,42.9,29.86,SW,229,0.0,0.0,75,0.00,,,0.00,Wunderground v.1.15,2013-06-04 10:45:00,
2013-06-04 06:55:00,51.1,42.7,29.86,SW,229,0.0,0.0,73,0.00,,,0.00,Wunderground v.1.15,2013-06-04 10:55:00,
2013-06-04 07:00:00,51.1,42.4,29.86,SW,229,0.0,0.0,72,0.00,,,0.00,Wunderground v.1.15,2013-06-04 11:00:00,
2013-06-04 07:06:00,51.2,42.8,29.86,SW,229,0.0,0.0,73,0.00,,,0.00,Wunderground v.1.15,2013-06-04 11:06:00,
2013-06-04 07:15:00,51.7,44.0,29.86,SW,229,0.0,0.0,75,0.00,,,0.00,Wunderground v.1.15,2013-06-04 11:15:00,
2013-06-04 07:25:00,51.8,43.1,29.86,SW,223,1.0,1.0,72,0.00,,,0.00,Wunderground v.1.15,2013-06-04 11:25:00,
2013-06-04 07:35:00,52.1,42.6,29.86,SW,228,1.0,1.0,70,0.00,,,0.00,Wunderground v.1.15,2013-06-04 11:35:00,
2013-06-04 07:40:00,52.5,43.0,29.86,SW,227,1.0,1.0,70,0.00,,,0.00,Wunderground v.1.15,2013-06-04 11:40:00,
2013-06-04 07:50:00,52.9,43.0,29.86,WSW,242,1.0,2.0,69,0.00,,,0.00,Wunderground v.1.15,2013-06-04 11:50:00,
2013-06-04 07:55:00,53.3,43.4,29.86,SW,236,1.0,2.0,69,0.00,,,0.00,Wunderground v.1.15,2013-06-04 11:55:00,
2013-06-04 08:00:00,53.5,43.2,29.86,SW,232,1.0,2.0,68,0.00,,,0.00,Wunderground v.1.15,2013-06-04 12:00:00,
2013-06-04 08:06:00,54.0,44.1,29.86,West,261,1.0,2.0,69,0.00,,,0.00,Wunderground v.1.15,2013-06-04 12:06:00,
2013-06-04 08:15:00,54.5,43.8,29.86,SW,221,1.0,1.0,67,0.00,,,0.00,Wunderground v.1.15,2013-06-04 12:15:00,
2013-06-04 08:25:00,55.3,44.9,29.86,SSW,205,1.0,5.0,68,0.00,,,0.00,Wunderground v.1.15,2013-06-04 12:25:00,
2013-06-04 08:30:00,54.4,43.3,29.86,SW,221,2.0,2.0,66,0.00,,,0.00,Wunderground v.1.15,2013-06-04 12:30:00,
2013-06-04 08:35:00,54.1,43.8,29.86,SW,217,2.0,2.0,68,0.00,,,0.00,Wunderground v.1.15,2013-06-04 12:35:00,
2013-06-04 08:45:00,54.8,44.0,29.86,SW,225,1.0,2.0,67,0.00,,,0.00,Wunderground v.1.15,2013-06-04 12:45:00,
2013-06-04 08:55:00,55.5,44.7,29.86,WSW,241,1.0,2.0,67,0.00,,,0.00,Wunderground v.1.15,2013-06-04 12:55:00,
2013-06-04 09:00:00,56.2,44.6,29.86,South,183,0.0,2.0,65,0.00,,,0.00,Wunderground v.1.15,2013-06-04 13:00:00,
2013-06-04 09:10:00,56.4,44.0,29.86,WNW,303,3.0,5.0,63,0.00,,,0.00,Wunderground v.1.15,2013-06-04 13:10:00,
2013-06-04 09:15:00,56.4,43.5,29.86,SW,216,3.0,5.0,62,0.00,,,0.00,Wunderground v.1.15,2013-06-04 13:15:00,
2013-06-04 09:20:00,56.2,42.5,29.87,NW,306,3.0,3.0,60,0.00,,,0.00,Wunderground v.1.15,2013-06-04 13:20:00,
2013-06-04 09:25:00,56.6,44.1,29.87,SW,214,2.0,3.0,63,0.00,,,0.00,Wunderground v.1.15,2013-06-04 13:25:00,
2013-06-04 09:35:00,55.7,42.9,29.88,West,263,2.0,2.0,62,0.00,,,0.00,Wunderground v.1.15,2013-06-04 13:35:00,
2013-06-04 09:45:00,55.6,43.6,29.87,West,281,2.0,2.0,64,0.00,,,0.00,Wunderground v.1.15,2013-06-04 13:45:00,
2013-06-04 09:50:00,56.9,44.4,29.87,ENE,65,2.0,4.0,63,0.00,,,0.00,Wunderground v.1.15,2013-06-04 13:50:00,
2013-06-04 09:55:00,58.1,44.7,29.88,SW,227,1.0,4.0,61,0.00,,,0.00,Wunderground v.1.15,2013-06-04 13:55:00,
2013-06-04 10:05:00,58.0,44.6,29.87,WSW,255,2.0,2.0,61,0.00,,,0.00,Wunderground v.1.15,2013-06-04 14:05:00,
2013-06-04 10:15:00,57.7,43.9,29.88,WNW,284,2.0,2.0,60,0.00,,,0.00,Wunderground v.1.15,2013-06-04 14:15:00,
2013-06-04 10:20:00,58.0,44.6,29.88,SSW,194,2.0,2.0,61,0.00,,,0.00,Wunderground v.1.15,2013-06-04 14:20:00,
2013-06-04 10:25:00,57.9,43.7,29.88,WNW,300,2.0,2.0,59,0.00,,,0.00,Wunderground v.1.15,2013-06-04 14:25:00,
2013-06-04 10:35:00,58.8,44.0,29.89,SSW,192,1.0,3.0,58,0.00,,,0.00,Wunderground v.1.15,2013-06-04 14:35:00,
2013-06-04 10:40:00,59.0,44.7,29.88,NNE,30,1.0,1.0,59,0.00,,,0.00,Wunderground v.1.15,2013-06-04 14:40:00,
2013-06-04 10:45:00,58.8,44.0,29.89,SSW,203,1.0,1.0,58,0.00,,,0.00,Wunderground v.1.15,2013-06-04 14:45:00,
2013-06-04 10:55:00,58.6,44.3,29.89,ENE,72,2.0,6.0,59,0.00,,,0.00,Wunderground v.1.15,2013-06-04 14:55:00,
2013-06-04 11:00:00,59.0,43.8,29.89,ENE,75,2.0,2.0,57,0.00,,,0.00,Wunderground v.1.15,2013-06-04 15:00:00,
2013-06-04 11:05:00,59.0,45.6,29.89,SSE,160,1.0,2.0,61,0.00,,,0.00,Wunderground v.1.15,2013-06-04 15:05:00,
2013-06-04 11:15:00,59.1,42.9,29.89,SW,222,2.0,4.0,55,0.00,,,0.00,Wunderground v.1.15,2013-06-04 15:15:00,
2013-06-04 11:25:00,59.3,42.6,29.89,SSW,206,1.0,4.0,54,0.00,,,0.00,Wunderground v.1.15,2013-06-04 15:25:00,
2013-06-04 11:30:00,59.0,44.2,29.89,East,84,1.0,1.0,58,0.00,,,0.00,Wunderground v.1.15,2013-06-04 15:30:00,
2013-06-04 11:40:00,58.8,44.5,29.90,SW,217,1.0,1.0,59,0.00,,,0.00,Wunderground v.1.15,2013-06-04 15:40:00,
2013-06-04 11:45:00,59.2,45.3,29.90,SW,223,1.0,5.0,60,0.00,,,0.00,Wunderground v.1.15,2013-06-04 15:45:00,
2013-06-04 11:50:00,59.6,43.9,29.90,SW,223,2.0,6.0,56,0.00,,,0.00,Wunderground v.1.15,2013-06-04 15:50:00,
2013-06-04 11:55:00,59.8,44.5,29.90,SW,234,3.0,6.0,57,0.00,,,0.00,Wunderground v.1.15,2013-06-04 15:55:00,
2013-06-04 12:05:00,60.4,45.5,29.90,SSW,206,2.0,4.0,58,0.00,,,0.00,Wunderground v.1.15,2013-06-04 16:05:00,
2013-06-04 12:15:00,60.2,43.5,29.91,SSW,203,2.0,3.0,54,0.00,,,0.00,Wunderground v.1.15,2013-06-04 16:15:00,
2013-06-04 12:20:00,59.6,43.9,29.91,SW,234,1.0,7.0,56,0.00,,,0.00,Wunderground v.1.15,2013-06-04 16:20:00,
2013-06-04 12:25:00,60.2,44.4,29.91,SSW,202,2.0,7.0,56,0.00,,,0.00,Wunderground v.1.15,2013-06-04 16:25:00,
2013-06-04 12:35:00,60.3,44.1,29.91,SW,214,3.0,5.0,55,0.00,,,0.00,Wunderground v.1.15,2013-06-04 16:35:00,
2013-06-04 12:45:00,59.9,44.6,29.92,NE,54,3.0,3.0,57,0.00,,,0.00,Wunderground v.1.15,2013-06-04 16:45:00,
2013-06-04 12:50:00,59.0,42.4,29.92,WNW,296,2.0,2.0,54,0.00,,,0.00,Wunderground v.1.15,2013-06-04 16:50:00,
2013-06-04 13:00:00,59.0,42.8,29.91,SW,230,3.0,3.0,55,0.00,,,0.00,Wunderground v.1.15,2013-06-04 17:00:00,
2013-06-04 13:05:00,59.0,43.3,29.92,WSW,237,2.0,6.0,56,0.00,,,0.00,Wunderground v.1.15,2013-06-04 17:05:00,
2013-06-04 13:10:00,58.7,43.0,29.92,WSW,240,2.0,11.0,56,0.00,,,0.00,Wunderground v.1.15,2013-06-04 17:10:00,
2013-06-04 13:15:00,59.0,43.8,29.92,SSW,199,3.0,11.0,57,0.00,,,0.00,Wunderground v.1.15,2013-06-04 17:15:00,
2013-06-04 13:25:00,59.4,44.2,29.92,NW,326,2.0,2.0,57,0.00,,,0.00,Wunderground v.1.15,2013-06-04 17:25:00,
2013-06-04 13:36:00,60.4,43.7,29.92,South,190,3.0,12.0,54,0.00,,,0.00,Wunderground v.1.15,2013-06-04 17:36:00,
2013-06-04 13:45:00,58.9,44.1,29.93,ENE,60,2.0,2.0,58,0.00,,,0.00,Wunderground v.1.15,2013-06-04 17:45:00,
2013-06-04 13:55:00,59.0,44.2,29.93,West,259,3.0,4.0,58,0.00,,,0.00,Wunderground v.1.15,2013-06-04 17:55:00,
2013-06-04 14:00:00,59.7,45.3,29.93,East,98,2.0,4.0,59,0.00,,,0.00,Wunderground v.1.15,2013-06-04 18:00:00,
2013-06-04 14:05:00,60.2,45.8,29.93,NW,309,1.0,4.0,59,0.00,,,0.00,Wunderground v.1.15,2013-06-04 18:05:00,
2013-06-04 14:15:00,61.0,45.7,29.93,NNW,331,3.0,3.0,57,0.00,,,0.00,Wunderground v.1.15,2013-06-04 18:15:00,
2013-06-04 14:21:00,60.7,44.4,29.93,South,173,2.0,2.0,55,0.00,,,0.00,Wunderground v.1.15,2013-06-04 18:21:00,
2013-06-04 14:26:00,60.6,44.8,29.92,West,281,1.0,3.0,56,0.00,,,0.00,Wunderground v.1.15,2013-06-04 18:26:00,
2013-06-04 14:35:00,61.1,44.8,29.92,ENE,60,3.0,3.0,55,0.00,,,0.00,Wunderground v.1.15,2013-06-04 18:35:00,
2013-06-04 14:45:00,60.8,43.6,29.92,West,277,3.0,7.0,53,0.00,,,0.00,Wunderground v.1.15,2013-06-04 18:45:00,
2013-06-04 14:50:00,61.1,45.3,29.93,NNE,13,3.0,3.0,56,0.00,,,0.00,Wunderground v.1.15,2013-06-04 18:50:00,
2013-06-04 14:55:00,61.2,44.9,29.92,WSW,248,2.0,4.0,55,0.00,,,0.00,Wunderground v.1.15,2013-06-04 18:55:00,
2013-06-04 15:05:00,60.9,44.6,29.92,WSW,254,4.0,4.0,55,0.00,,,0.00,Wunderground v.1.15,2013-06-04 19:05:00,
2013-06-04 15:15:00,61.8,45.0,29.92,SSW,196,2.0,11.0,54,0.00,,,0.00,Wunderground v.1.15,2013-06-04 19:15:00,
2013-06-04 15:20:00,62.0,44.7,29.92,WSW,250,2.0,2.0,53,0.00,,,0.00,Wunderground v.1.15,2013-06-04 19:20:00,
2013-06-04 15:30:00,61.4,45.6,29.92,NNE,25,2.0,2.0,56,0.00,,,0.00,Wunderground v.1.15,2013-06-04 19:30:00,
2013-06-04 15:35:00,61.7,46.3,29.92,WNW,291,1.0,2.0,57,0.00,,,0.00,Wunderground v.1.15,2013-06-04 19:35:00,
2013-06-04 15:41:00,62.2,45.8,29.92,NE,54,1.0,1.0,55,0.00,,,0.00,Wunderground v.1.15,2013-06-04 19:41:00,
2013-06-04 15:46:00,62.3,45.9,29.92,South,178,1.0,1.0,55,0.00,,,0.00,Wunderground v.1.15,2013-06-04 19:46:00,
2013-06-04 15:55:00,62.0,45.6,29.92,NNE,26,1.0,6.0,55,0.00,,,0.00,Wunderground v.1.15,2013-06-04 19:55:00,
2013-06-04 16:05:00,61.6,44.8,29.93,NE,52,2.0,3.0,54,0.00,,,0.00,Wunderground v.1.15,2013-06-04 20:05:00,
2013-06-04 16:10:00,61.6,45.3,29.93,SW,216,1.0,1.0,55,0.00,,,0.00,Wunderground v.1.15,2013-06-04 20:10:00,
2013-06-04 16:15:00,62.0,45.2,29.93,West,270,1.0,1.0,54,0.00,,,0.00,Wunderground v.1.15,2013-06-04 20:15:00,
2013-06-04 16:26:00,61.7,44.9,29.92,West,277,2.0,2.0,54,0.00,,,0.00,Wunderground v.1.15,2013-06-04 20:26:00,
2013-06-04 16:35:00,61.6,44.8,29.92,NNE,13,1.0,1.0,54,0.00,,,0.00,Wunderground v.1.15,2013-06-04 20:35:00,
2013-06-04 16:46:00,62.2,45.8,29.93,SW,229,1.0,1.0,55,0.00,,,0.00,Wunderground v.1.15,2013-06-04 20:46:00,
2013-06-04 16:55:00,62.4,45.0,29.93,SW,234,1.0,10.0,53,0.00,,,0.00,Wunderground v.1.15,2013-06-04 20:55:00,
2013-06-04 17:05:00,62.3,44.9,29.93,WSW,248,1.0,1.0,53,0.00,,,0.00,Wunderground v.1.15,2013-06-04 21:05:00,
2013-06-04 17:11:00,62.4,44.5,29.93,SSW,196,1.0,1.0,52,0.00,,,0.00,Wunderground v.1.15,2013-06-04 21:11:00,
2013-06-04 17:16:00,62.3,43.9,29.94,SW,217,2.0,2.0,51,0.00,,,0.00,Wunderground v.1.15,2013-06-04 21:16:00,
2013-06-04 17:25:00,62.2,43.8,29.93,SW,215,1.0,2.0,51,0.00,,,0.00,Wunderground v.1.15,2013-06-04 21:25:00,
2013-06-04 17:35:00,62.2,44.3,29.93,WSW,238,1.0,9.0,52,0.00,,,0.00,Wunderground v.1.15,2013-06-04 21:35:00,
2013-06-04 17:40:00,62.1,44.3,29.94,WSW,257,1.0,1.0,52,0.00,,,0.00,Wunderground v.1.15,2013-06-04 21:40:00,
2013-06-04 17:45:00,62.2,43.8,29.94,WSW,248,1.0,1.0,51,0.00,,,0.00,Wunderground v.1.15,2013-06-04 21:45:00,
2013-06-04 17:55:00,62.2,43.3,29.94,SSE,153,1.0,1.0,50,0.00,,,0.00,Wunderground v.1.15,2013-06-04 21:55:00,
2013-06-04 18:06:00,61.9,44.1,29.94,SSW,192,1.0,2.0,52,0.00,,,0.00,Wunderground v.1.15,2013-06-04 22:06:00,
2013-06-04 18:15:00,62.0,43.1,29.94,SSE,163,1.0,1.0,50,0.00,,,0.00,Wunderground v.1.15,2013-06-04 22:15:00,
2013-06-04 18:25:00,62.0,43.7,29.95,SSW,213,0.0,0.0,51,0.00,,,0.00,Wunderground v.1.15,2013-06-04 22:25:00,
2013-06-04 18:31:00,61.8,43.5,29.95,WNW,287,0.0,0.0,51,0.00,,,0.00,Wunderground v.1.15,2013-06-04 22:31:00,
2013-06-04 18:36:00,61.6,43.3,29.95,East,90,0.0,0.0,51,0.00,,,0.00,Wunderground v.1.15,2013-06-04 22:36:00,
2013-06-04 18:45:00,61.2,42.9,29.96,SW,236,1.0,2.0,51,0.00,,,0.00,Wunderground v.1.15,2013-06-04 22:45:00,
2013-06-04 18:55:00,60.8,43.1,29.96,WSW,242,0.0,1.0,52,0.00,,,0.00,Wunderground v.1.15,2013-06-04 22:55:00,
2013-06-04 19:00:00,60.6,42.4,29.97,NW,313,0.0,0.0,51,0.00,,,0.00,Wunderground v.1.15,2013-06-04 23:00:00,
2013-06-04 19:05:00,60.3,42.1,29.97,SW,219,0.0,0.0,51,0.00,,,0.00,Wunderground v.1.15,2013-06-04 23:05:00,
2013-06-04 19:15:00,60.0,42.3,29.97,SW,219,1.0,5.0,52,0.00,,,0.00,Wunderground v.1.15,2013-06-04 23:15:00,
2013-06-04 19:20:00,59.8,42.1,29.98,SW,232,1.0,1.0,52,0.00,,,0.00,Wunderground v.1.15,2013-06-04 23:20:00,
2013-06-04 19:26:00,59.7,42.5,29.98,WSW,254,1.0,1.0,53,0.00,,,0.00,Wunderground v.1.15,2013-06-04 23:26:00,
2013-06-04 19:35:00,59.4,42.7,29.98,South,184,0.0,0.0,54,0.00,,,0.00,Wunderground v.1.15,2013-06-04 23:35:00,
2013-06-04 19:45:00,59.0,42.4,29.99,SSW,199,1.0,1.0,54,0.00,,,0.00,Wunderground v.1.15,2013-06-04 23:45:00,
2013-06-04 19:50:00,59.0,43.3,29.99,SSW,193,1.0,1.0,56,0.00,,,0.00,Wunderground v.1.15,2013-06-04 23:50:00,
2013-06-04 20:00:00,58.5,42.8,29.99,NW,317,0.0,4.0,56,0.00,,,0.00,Wunderground v.1.15,2013-06-05 00:00:00,
2013-06-04 20:05:00,58.3,43.1,29.99,South,174,1.0,4.0,57,0.00,,,0.00,Wunderground v.1.15,2013-06-05 00:05:00,
2013-06-04 20:10:00,58.2,43.0,29.99,SW,234,1.0,1.0,57,0.00,,,0.00,Wunderground v.1.15,2013-06-05 00:10:00,
2013-06-04 20:15:00,58.1,42.9,30.00,SW,215,0.0,1.0,57,0.00,,,0.00,Wunderground v.1.15,2013-06-05 00:15:00,
2013-06-04 20:25:00,57.7,43.5,30.00,West,261,0.0,0.0,59,0.00,,,0.00,Wunderground v.1.15,2013-06-05 00:25:00,
2013-06-04 20:36:00,57.5,43.3,30.01,SSW,212,1.0,1.0,59,0.00,,,0.00,Wunderground v.1.15,2013-06-05 00:36:00,
2013-06-04 20:45:00,56.9,43.2,30.01,South,172,0.0,0.0,60,0.00,,,0.00,Wunderground v.1.15,2013-06-05 00:45:00,
2013-06-04 20:55:00,56.2,43.3,30.02,South,172,0.0,0.0,62,0.00,,,0.00,Wunderground v.1.15,2013-06-05 00:55:00,
2013-06-04 21:01:00,55.9,43.5,30.02,SSW,192,0.0,0.0,63,0.00,,,0.00,Wunderground v.1.15,2013-06-05 01:01:00,
2013-06-04 21:06:00,55.5,43.1,30.02,South,191,0.0,0.0,63,0.00,,,0.00,Wunderground v.1.15,2013-06-05 01:06:00,
2013-06-04 21:15:00,55.2,43.2,30.03,SSW,194,0.0,0.0,64,0.00,,,0.00,Wunderground v.1.15,2013-06-05 01:15:00,
2013-06-04 21:21:00,55.2,43.2,30.03,SW,217,0.0,0.0,64,0.00,,,0.00,Wunderground v.1.15,2013-06-05 01:21:00,
2013-06-04 21:26:00,55.2,43.2,30.04,SW,217,0.0,0.0,64,0.00,,,0.00,Wunderground v.1.15,2013-06-05 01:26:00,
2013-06-04 21:35:00,54.9,43.4,30.04,SW,215,0.0,0.0,65,0.00,,,0.00,Wunderground v.1.15,2013-06-05 01:35:00,
2013-06-04 21:45:00,54.5,43.4,30.04,SW,217,0.0,0.0,66,0.00,,,0.00,Wunderground v.1.15,2013-06-05 01:45:00,
2013-06-04 21:50:00,54.2,43.5,30.05,SW,218,0.0,0.0,67,0.00,,,0.00,Wunderground v.1.15,2013-06-05 01:50:00,
2013-06-04 21:55:00,54.0,43.7,30.05,SW,217,0.0,0.0,68,0.00,,,0.00,Wunderground v.1.15,2013-06-05 01:55:00,
2013-06-04 22:05:00,53.9,43.6,30.05,SW,219,0.0,0.0,68,0.00,,,0.00,Wunderground v.1.15,2013-06-05 02:05:00,
2013-06-04 22:11:00,54.0,43.7,30.05,SW,220,0.0,0.0,68,0.00,,,0.00,Wunderground v.1.15,2013-06-05 02:11:00,
2013-06-04 22:16:00,54.1,43.4,30.05,SW,219,0.0,0.0,67,0.00,,,0.00,Wunderground v.1.15,2013-06-05 02:16:00,
2013-06-04 22:25:00,54.1,43.4,30.05,SW,225,0.0,0.0,67,0.00,,,0.00,Wunderground v.1.15,2013-06-05 02:25:00,
2013-06-04 22:35:00,54.0,43.7,30.06,South,191,0.0,0.0,68,0.00,,,0.00,Wunderground v.1.15,2013-06-05 02:35:00,
2013-06-04 22:40:00,54.1,43.8,30.06,SW,223,0.0,0.0,68,0.00,,,0.00,Wunderground v.1.15,2013-06-05 02:40:00,
2013-06-04 22:45:00,53.9,44.0,30.06,SW,221,0.0,0.0,69,0.00,,,0.00,Wunderground v.1.15,2013-06-05 02:45:00,
2013-06-04 22:55:00,53.3,44.1,30.07,SW,217,0.0,3.0,71,0.00,,,0.00,Wunderground v.1.15,2013-06-05 02:55:00,
2013-06-04 23:05:00,53.0,43.8,30.07,SW,221,0.0,0.0,71,0.00,,,0.00,Wunderground v.1.15,2013-06-05 03:05:00,
2013-06-04 23:10:00,53.0,44.2,30.07,SW,215,0.0,0.0,72,0.00,,,0.00,Wunderground v.1.15,2013-06-05 03:10:00,
2013-06-04 23:15:00,52.9,44.1,30.07,SW,216,0.0,0.0,72,0.00,,,0.00,Wunderground v.1.15,2013-06-05 03:15:00,
2013-06-04 23:25:00,53.0,44.2,30.07,SW,214,0.0,1.0,72,0.00,,,0.00,Wunderground v.1.15,2013-06-05 03:25:00,
2013-06-04 23:31:00,52.8,44.4,30.07,SW,215,0.0,0.0,73,0.00,,,0.00,Wunderground v.1.15,2013-06-05 03:31:00,
2013-06-04 23:36:00,52.7,44.3,30.07,SSW,211,0.0,0.0,73,0.00,,,0.00,Wunderground v.1.15,2013-06-05 03:36:00,
2013-06-04 23:45:00,52.7,43.9,30.08,SSW,211,0.0,0.0,72,0.00,,,0.00,Wunderground v.1.15,2013-06-05 03:45:00,
2013-06-04 23:51:00,52.7,43.9,30.08,SSW,211,0.0,0.0,72,0.00,,,0.00,Wunderground v.1.15,2013-06-05 03:51:00,
2013-06-04 23:56:00,52.7,43.9,30.08,SSW,210,0.0,0.0,72,0.00,,,0.00,Wunderground v.1.15,2013-06-05 03:56:00,